Data,Hora,Valor
2021-02-01,00:00,4.25
2021-02-01,00:30,4.19
2021-02-01,01:00,4.13
2021-02-01,01:30,4.06
2021-02-01,02:00,4.0
2021-02-01,02:30,3.93
2021-02-01,03:00,3.87
2021-02-01,03:30,3.81
2021-02-01,04:00,3.75
2021-02-01,04:30,3.69
2021-02-01,05:00,3.64
2021-02-01,05:30,3.59
2021-02-01,06:00,3.54
2021-02-01,06:30,3.49
2021-02-01,07:00,3.45
2021-02-01,07:30,3.4
2021-02-01,08:00,3.36
2021-02-01,08:30,3.32
2021-02-01,09:00,3.28
2021-02-01,09:30,3.25
2021-02-01,10:00,3.22
2021-02-01,10:30,3.19
2021-02-01,11:00,3.16
2021-02-01,11:30,3.13
2021-02-01,12:00,3.1
2021-02-01,12:30,3.07
2021-02-01,13:00,3.04
2021-02-01,13:30,3.02
2021-02-01,14:00,2.99
2021-02-01,14:30,2.98
2021-02-01,15:00,2.95
2021-02-01,15:30,2.94
2021-02-01,16:00,2.92
2021-02-01,16:30,2.9
2021-02-01,17:00,2.88
2021-02-01,17:30,2.87
2021-02-01,18:00,2.86
2021-02-01,18:30,2.85
2021-02-01,19:00,2.83
2021-02-01,19:30,2.82
2021-02-01,20:00,2.81
2021-02-01,20:30,2.81
2021-02-01,21:00,2.8
2021-02-01,21:30,2.8
2021-02-01,22:00,2.8
2021-02-01,22:30,2.79
2021-02-01,23:00,2.8
2021-02-01,23:30,2.8
2021-02-02,00:00,2.81
2021-02-02,00:30,2.82
2021-02-02,01:00,2.83
2021-02-02,01:30,2.85
2021-02-02,02:00,2.87
2021-02-02,02:30,2.9
2021-02-02,03:00,2.95
2021-02-02,03:30,3.0
2021-02-02,04:00,3.06
2021-02-02,04:30,3.12
2021-02-02,05:00,3.19
2021-02-02,05:30,3.25
2021-02-02,06:00,3.29
2021-02-02,06:30,3.32
2021-02-02,07:00,3.34
2021-02-02,07:30,3.33
2021-02-02,08:00,3.32
2021-02-02,08:30,3.31
2021-02-02,09:00,3.3
2021-02-02,09:30,3.27
2021-02-02,10:00,3.25
2021-02-02,10:30,3.23
2021-02-02,11:00,3.21
2021-02-02,11:30,3.19
2021-02-02,12:00,3.16
2021-02-02,12:30,3.13
2021-02-02,13:00,3.1
2021-02-02,13:30,3.08
2021-02-02,14:00,3.06
2021-02-02,14:30,3.05
2021-02-02,15:00,3.03
2021-02-02,15:30,3.01
2021-02-02,16:00,2.99
2021-02-02,16:30,2.98
2021-02-02,17:00,2.96
2021-02-02,17:30,2.94
2021-02-02,18:00,2.92
2021-02-02,18:30,2.9
2021-02-02,19:00,2.89
2021-02-02,19:30,2.87
2021-02-02,20:00,2.86
2021-02-02,20:30,2.84
2021-02-02,21:00,2.82
2021-02-02,21:30,2.81
2021-02-02,22:00,2.8
2021-02-02,22:30,2.79
2021-02-02,23:00,2.79
2021-02-02,23:30,2.78
2021-02-03,00:00,2.79
2021-02-03,00:30,2.8
2021-02-03,01:00,2.81
2021-02-03,01:30,2.83
2021-02-03,02:00,2.86
2021-02-03,02:30,2.89
2021-02-03,03:00,2.94
2021-02-03,03:30,2.99
2021-02-03,04:00,3.07
2021-02-03,04:30,3.15
2021-02-03,05:00,3.25
2021-02-03,05:30,3.36
2021-02-03,06:00,3.47
2021-02-03,06:30,3.58
2021-02-03,07:00,3.65
2021-02-03,07:30,3.71
2021-02-03,08:00,3.76
2021-02-03,08:30,3.8
2021-02-03,09:00,3.82
2021-02-03,09:30,3.82
2021-02-03,10:00,3.8
2021-02-03,10:30,3.78
2021-02-03,11:00,3.76
2021-02-03,11:30,3.74
2021-02-03,12:00,3.7
2021-02-03,12:30,3.66
2021-02-03,13:00,3.62
2021-02-03,13:30,3.58
2021-02-03,14:00,3.53
2021-02-03,14:30,3.48
2021-02-03,15:00,3.42
2021-02-03,15:30,3.37
2021-02-03,16:00,3.32
2021-02-03,16:30,3.28
2021-02-03,17:00,3.23
2021-02-03,17:30,3.19
2021-02-03,18:00,3.14
2021-02-03,18:30,3.1
2021-02-03,19:00,3.07
2021-02-03,19:30,3.03
2021-02-03,20:00,2.99
2021-02-03,20:30,2.96
2021-02-03,21:00,2.93
2021-02-03,21:30,2.91
2021-02-03,22:00,2.88
2021-02-03,22:30,2.86
2021-02-03,23:00,2.84
2021-02-03,23:30,2.81
2021-02-04,00:00,2.79
2021-02-04,00:30,2.77
2021-02-04,01:00,2.76
2021-02-04,01:30,2.74
2021-02-04,02:00,2.73
2021-02-04,02:30,2.71
2021-02-04,03:00,2.69
2021-02-04,03:30,2.67
2021-02-04,04:00,2.66
2021-02-04,04:30,2.63
2021-02-04,05:00,2.61
2021-02-04,05:30,2.59
2021-02-04,06:00,2.58
2021-02-04,06:30,2.58
2021-02-04,07:00,2.57
2021-02-04,07:30,2.57
2021-02-04,08:00,2.56
2021-02-04,08:30,2.55
2021-02-04,09:00,2.54
2021-02-04,09:30,2.54
2021-02-04,10:00,2.53
2021-02-04,10:30,2.53
2021-02-04,11:00,2.53
2021-02-04,11:30,2.52
2021-02-04,12:00,2.5
2021-02-04,12:30,2.49
2021-02-04,13:00,2.48
2021-02-04,13:30,2.47
2021-02-04,14:00,2.46
2021-02-04,14:30,2.45
2021-02-04,15:00,2.45
2021-02-04,15:30,2.44
2021-02-04,16:00,2.43
2021-02-04,16:30,2.42
2021-02-04,17:00,2.41
2021-02-04,17:30,2.41
2021-02-04,18:00,2.4
2021-02-04,18:30,2.39
2021-02-04,19:00,2.38
2021-02-04,19:30,2.38
2021-02-04,20:00,2.37
2021-02-04,20:30,2.36
2021-02-04,21:00,2.36
2021-02-04,21:30,2.35
2021-02-04,22:00,2.34
2021-02-04,22:30,2.33
2021-02-04,23:00,2.33
2021-02-04,23:30,2.32
2021-02-05,00:00,2.32
2021-02-05,00:30,2.31
2021-02-05,01:00,2.31
2021-02-05,01:30,2.3
2021-02-05,02:00,2.29
2021-02-05,02:30,2.28
2021-02-05,03:00,2.27
2021-02-05,03:30,2.27
2021-02-05,04:00,2.26
2021-02-05,04:30,2.26
2021-02-05,05:00,2.25
2021-02-05,05:30,2.25
2021-02-05,06:00,2.24
2021-02-05,06:30,2.24
2021-02-05,07:00,2.23
2021-02-05,07:30,2.23
2021-02-05,08:00,2.22
2021-02-05,08:30,2.22
2021-02-05,09:00,2.22
2021-02-05,09:30,2.21
2021-02-05,10:00,2.21
2021-02-05,10:30,2.2
2021-02-05,11:00,2.2
2021-02-05,11:30,2.19
2021-02-05,12:00,2.19
2021-02-05,12:30,2.19
2021-02-05,13:00,2.19
2021-02-05,13:30,2.18
2021-02-05,14:00,2.18
2021-02-05,14:30,2.18
2021-02-05,15:00,2.18
2021-02-05,15:30,2.17
2021-02-05,16:00,2.17
2021-02-05,16:30,2.17
2021-02-05,17:00,2.16
2021-02-05,17:30,2.16
2021-02-05,18:00,2.16
2021-02-05,18:30,2.16
2021-02-05,19:00,2.16
2021-02-05,19:30,2.16
2021-02-05,20:00,2.17
2021-02-05,20:30,2.17
2021-02-05,21:00,2.17
2021-02-05,21:30,2.18
2021-02-05,22:00,2.18
2021-02-05,22:30,2.18
2021-02-05,23:00,2.18
2021-02-05,23:30,2.19
2021-02-06,00:00,2.19
2021-02-06,00:30,2.2
2021-02-06,01:00,2.21
2021-02-06,01:30,2.21
2021-02-06,02:00,2.21
2021-02-06,02:30,2.22
2021-02-06,03:00,2.22
2021-02-06,03:30,2.22
2021-02-06,04:00,2.22
2021-02-06,04:30,2.22
2021-02-06,05:00,2.21
2021-02-06,05:30,2.21
2021-02-06,06:00,2.21
2021-02-06,06:30,2.2
2021-02-06,07:00,2.2
2021-02-06,07:30,2.2
2021-02-06,08:00,2.19
2021-02-06,08:30,2.19
2021-02-06,09:00,2.18
2021-02-06,09:30,2.18
2021-02-06,10:00,2.17
2021-02-06,10:30,2.17
2021-02-06,11:00,2.16
2021-02-06,11:30,2.16
2021-02-06,12:00,2.16
2021-02-06,12:30,2.16
2021-02-06,13:00,2.15
2021-02-06,13:30,2.15
2021-02-06,14:00,2.15
2021-02-06,14:30,2.15
2021-02-06,15:00,2.15
2021-02-06,15:30,2.15
2021-02-06,16:00,2.15
2021-02-06,16:30,2.14
2021-02-06,17:00,2.14
2021-02-06,17:30,2.14
2021-02-06,18:00,2.14
2021-02-06,18:30,2.13
2021-02-06,19:00,2.13
2021-02-06,19:30,2.13
2021-02-06,20:00,2.12
2021-02-06,20:30,2.12
2021-02-06,21:00,2.11
2021-02-06,21:30,2.11
2021-02-06,22:00,2.1
2021-02-06,22:30,2.1
2021-02-06,23:00,2.09
2021-02-06,23:30,2.09
2021-02-07,00:00,2.08
2021-02-07,00:30,2.07
2021-02-07,01:00,2.06
2021-02-07,01:30,2.05
2021-02-07,02:00,2.05
2021-02-07,02:30,2.05
2021-02-07,03:00,2.04
2021-02-07,03:30,2.04
2021-02-07,04:00,2.03
2021-02-07,04:30,2.03
2021-02-07,05:00,2.03
2021-02-07,05:30,2.02
2021-02-07,06:00,2.02
2021-02-07,06:30,2.02
2021-02-07,07:00,2.02
2021-02-07,07:30,2.02
2021-02-07,08:00,2.01
2021-02-07,08:30,2.01
2021-02-07,09:00,2.01
2021-02-07,09:30,2.0
2021-02-07,10:00,1.99
2021-02-07,10:30,1.98
2021-02-07,11:00,1.97
2021-02-07,11:30,1.96
2021-02-07,12:00,1.94
2021-02-07,12:30,1.94
2021-02-07,13:00,1.94
2021-02-07,13:30,1.95
2021-02-07,14:00,1.95
2021-02-07,14:30,1.95
2021-02-07,15:00,1.95
2021-02-07,15:30,1.94
2021-02-07,16:00,1.94
2021-02-07,16:30,1.94
2021-02-07,17:00,1.94
2021-02-07,17:30,1.94
2021-02-07,18:00,1.94
2021-02-07,18:30,1.94
2021-02-07,19:00,1.94
2021-02-07,19:30,1.94
2021-02-07,20:00,1.94
2021-02-07,20:30,1.95
2021-02-07,21:00,1.95
2021-02-07,21:30,1.97
2021-02-07,22:00,1.98
2021-02-07,22:30,1.99
2021-02-07,23:00,2.0
2021-02-07,23:30,2.02
2021-02-08,00:00,2.04
2021-02-08,00:30,2.06
2021-02-08,01:00,2.1
2021-02-08,01:30,2.16
2021-02-08,02:00,2.24
2021-02-08,02:30,2.47
2021-02-08,03:00,2.83
2021-02-08,03:30,3.11
2021-02-08,04:00,3.27
2021-02-08,04:30,3.33
2021-02-08,05:00,3.33
2021-02-08,05:30,3.3
2021-02-08,06:00,3.25
2021-02-08,06:30,3.21
2021-02-08,07:00,3.17
2021-02-08,07:30,3.13
2021-02-08,08:00,3.1
2021-02-08,08:30,3.08
2021-02-08,09:00,3.07
2021-02-08,09:30,3.08
2021-02-08,10:00,3.1
2021-02-08,10:30,3.15
2021-02-08,11:00,3.21
2021-02-08,11:30,3.25
2021-02-08,12:00,3.28
2021-02-08,12:30,3.29
2021-02-08,13:00,3.29
2021-02-08,13:30,3.29
2021-02-08,14:00,3.28
2021-02-08,14:30,3.26
2021-02-08,15:00,3.24
2021-02-08,15:30,3.21
2021-02-08,16:00,3.18
2021-02-08,16:30,3.15
2021-02-08,17:00,3.13
2021-02-08,17:30,3.1
2021-02-08,18:00,3.1
2021-02-08,18:30,3.1
2021-02-08,19:00,3.1
2021-02-08,19:30,3.11
2021-02-08,20:00,3.11
2021-02-08,20:30,3.1
2021-02-08,21:00,3.1
2021-02-08,21:30,3.09
2021-02-08,22:00,3.08
2021-02-08,22:30,3.07
2021-02-08,23:00,3.05
2021-02-08,23:30,3.02
2021-02-09,00:00,3.0
2021-02-09,00:30,2.97
2021-02-09,01:00,2.94
2021-02-09,01:30,2.91
2021-02-09,02:00,2.88
2021-02-09,02:30,2.86
2021-02-09,03:00,2.85
2021-02-09,03:30,2.85
2021-02-09,04:00,2.85
2021-02-09,04:30,2.87
2021-02-09,05:00,2.9
2021-02-09,05:30,2.96
2021-02-09,06:00,3.04
2021-02-09,06:30,3.17
2021-02-09,07:00,3.38
2021-02-09,07:30,3.7
2021-02-09,08:00,4.08
2021-02-09,08:30,4.48
2021-02-09,09:00,4.88
2021-02-09,09:30,5.25
2021-02-09,10:00,5.54
2021-02-09,10:30,5.74
2021-02-09,11:00,5.85
2021-02-09,11:30,5.9
2021-02-09,12:00,5.91
2021-02-09,12:30,5.92
2021-02-09,13:00,5.92
2021-02-09,13:30,5.93
2021-02-09,14:00,5.88
2021-02-09,14:30,5.8
2021-02-09,15:00,5.68
2021-02-09,15:30,5.54
2021-02-09,16:00,5.41
2021-02-09,16:30,5.27
2021-02-09,17:00,5.14
2021-02-09,17:30,5.03
2021-02-09,18:00,4.93
2021-02-09,18:30,4.84
2021-02-09,19:00,4.77
2021-02-09,19:30,4.72
2021-02-09,20:00,4.68
2021-02-09,20:30,4.64
2021-02-09,21:00,4.58
2021-02-09,21:30,4.53
2021-02-09,22:00,4.47
2021-02-09,22:30,4.44
2021-02-09,23:00,4.43
2021-02-09,23:30,4.42
2021-02-10,00:00,4.44
2021-02-10,00:30,4.45
2021-02-10,01:00,4.46
2021-02-10,01:30,4.46
2021-02-10,02:00,4.46
2021-02-10,02:30,4.48
2021-02-10,03:00,4.54
2021-02-10,03:30,4.64
2021-02-10,04:00,4.78
2021-02-10,04:30,4.92
2021-02-10,05:00,5.02
2021-02-10,05:30,5.07
2021-02-10,06:00,5.08
2021-02-10,06:30,5.04
2021-02-10,07:00,4.98
2021-02-10,07:30,4.91
2021-02-10,08:00,4.83
2021-02-10,08:30,4.76
2021-02-10,09:00,4.68
2021-02-10,09:30,4.61
2021-02-10,10:00,4.54
2021-02-10,10:30,4.46
2021-02-10,11:00,4.38
2021-02-10,11:30,4.3
2021-02-10,12:00,4.23
2021-02-10,12:30,4.16
2021-02-10,13:00,4.09
2021-02-10,13:30,4.03
2021-02-10,14:00,3.97
2021-02-10,14:30,3.92
2021-02-10,15:00,3.87
2021-02-10,15:30,3.82
2021-02-10,16:00,3.78
2021-02-10,16:30,3.74
2021-02-10,17:00,3.7
2021-02-10,17:30,3.66
2021-02-10,18:00,3.63
2021-02-10,18:30,3.59
2021-02-10,19:00,3.56
2021-02-10,19:30,3.53
2021-02-10,20:00,3.51
2021-02-10,20:30,3.48
2021-02-10,21:00,3.45
2021-02-10,21:30,3.43
2021-02-10,22:00,3.41
2021-02-10,22:30,3.39
2021-02-10,23:00,3.36
2021-02-10,23:30,3.34
2021-02-11,00:00,3.33
2021-02-11,00:30,3.31
2021-02-11,01:00,3.3
2021-02-11,01:30,3.29
2021-02-11,02:00,3.29
2021-02-11,02:30,3.29
2021-02-11,03:00,3.3
2021-02-11,03:30,3.31
2021-02-11,04:00,3.33
2021-02-11,04:30,3.35
2021-02-12,13:00,3.77
2021-02-12,13:30,3.74
2021-02-12,14:00,3.71
2021-02-12,14:30,3.67
2021-02-12,15:00,3.63
2021-02-12,15:30,3.6
2021-02-12,16:00,3.57
2021-02-12,16:30,3.53
2021-02-12,17:00,3.5
2021-02-12,17:30,3.46
2021-02-12,18:00,3.43
2021-02-12,18:30,3.4
2021-02-12,19:00,3.37
2021-02-12,19:30,3.34
2021-02-12,20:00,3.31
2021-02-12,20:30,3.28
2021-02-12,21:00,3.25
2021-02-12,21:30,3.22
2021-02-12,22:00,3.2
2021-02-12,22:30,3.18
2021-02-12,23:00,3.16
2021-02-12,23:30,3.13
2021-02-13,00:00,3.11
2021-02-13,00:30,3.09
2021-02-13,01:00,3.07
2021-02-13,01:30,3.06
2021-02-13,02:00,3.04
2021-02-13,02:30,3.02
2021-02-13,03:00,3.0
2021-02-13,03:30,2.98
2021-02-13,04:00,2.97
2021-02-13,04:30,2.96
2021-02-13,05:00,2.94
2021-02-13,05:30,2.93
2021-02-13,06:00,2.91
2021-02-13,06:30,2.9
2021-02-13,07:00,2.89
2021-02-13,07:30,2.88
2021-02-13,08:00,2.87
2021-02-13,08:30,2.85
2021-02-13,09:00,2.84
2021-02-13,09:30,2.83
2021-02-13,10:00,2.82
2021-02-13,10:30,2.81
2021-02-13,11:00,2.8
2021-02-13,11:30,2.79
2021-02-13,12:00,2.78
2021-02-13,12:30,2.77
2021-02-13,13:00,2.76
2021-02-13,13:30,2.74
2021-02-13,14:00,2.73
2021-02-13,14:30,2.72
2021-02-13,15:00,2.71
2021-02-13,15:30,2.7
2021-02-13,16:00,2.69
2021-02-13,16:30,2.68
2021-02-13,17:00,2.67
2021-02-13,17:30,2.66
2021-02-13,18:00,2.65
2021-02-13,18:30,2.64
2021-02-13,19:00,2.63
2021-02-13,19:30,2.62
2021-02-13,20:00,2.61
2021-02-13,20:30,2.6
2021-02-13,21:00,2.59
2021-02-13,21:30,2.58
2021-02-13,22:00,2.57
2021-02-13,22:30,2.56
2021-02-13,23:00,2.55
2021-02-13,23:30,2.54
2021-02-14,00:00,2.53
2021-02-14,00:30,2.53
2021-02-14,01:00,2.52
2021-02-14,01:30,2.51
2021-02-14,02:00,2.5
2021-02-14,02:30,2.5
2021-02-14,03:00,2.49
2021-02-14,03:30,2.48
2021-02-14,04:00,2.47
2021-02-14,04:30,2.47
2021-02-14,05:00,2.46
2021-02-14,05:30,2.45
2021-02-14,06:00,2.45
2021-02-14,06:30,2.44
2021-02-14,07:00,2.43
2021-02-14,07:30,2.43
2021-02-14,08:00,2.42
2021-02-14,08:30,2.42
2021-02-14,09:00,2.41
2021-02-14,09:30,2.4
2021-02-14,10:00,2.4
2021-02-14,10:30,2.39
2021-02-14,11:00,2.38
2021-02-14,11:30,2.38
2021-02-14,12:00,2.37
2021-02-14,12:30,2.37
2021-02-14,13:00,2.36
2021-02-14,13:30,2.36
2021-02-14,14:00,2.35
2021-02-14,14:30,2.35
2021-02-14,15:00,2.34
2021-02-14,15:30,2.33
2021-02-14,16:00,2.33
2021-02-14,16:30,2.32
2021-02-14,17:00,2.31
2021-02-14,17:30,2.31
2021-02-14,18:00,2.3
2021-02-14,18:30,2.29
2021-02-14,19:00,2.29
2021-02-14,19:30,2.28
2021-02-14,20:00,2.27
2021-02-14,20:30,2.27
2021-02-14,21:00,2.26
2021-02-14,21:30,2.25
2021-02-14,22:00,2.25
2021-02-14,22:30,2.24
2021-02-14,23:00,2.24
2021-02-14,23:30,2.23
2021-02-15,00:00,2.23
2021-02-15,00:30,2.22
2021-02-15,01:00,2.22
2021-02-15,01:30,2.21
2021-02-15,02:00,2.21
2021-02-15,02:30,2.2
2021-02-15,03:00,2.2
2021-02-15,03:30,2.2
2021-02-15,04:00,2.19
2021-02-15,04:30,2.19
2021-02-15,05:00,2.18
2021-02-15,05:30,2.17
2021-02-15,06:00,2.16
2021-02-15,06:30,2.16
2021-02-15,07:00,2.15
2021-02-15,07:30,2.15
2021-02-15,08:00,2.14
2021-02-15,08:30,2.13
2021-02-15,09:00,2.13
2021-02-15,09:30,2.12
2021-02-15,10:00,2.12
2021-02-15,10:30,2.12
2021-02-15,11:00,2.12
2021-02-15,11:30,2.13
2021-02-15,12:00,2.13
2021-02-15,12:30,2.13
2021-02-15,13:00,2.12
2021-02-15,13:30,2.12
2021-02-15,14:00,2.12
2021-02-15,14:30,2.12
2021-02-15,15:00,2.11
2021-02-15,15:30,2.11
2021-02-15,16:00,2.11
2021-02-15,16:30,2.1
2021-02-15,17:00,2.1
2021-02-15,17:30,2.09
2021-02-15,18:00,2.09
2021-02-15,18:30,2.08
2021-02-15,19:00,2.07
2021-02-15,19:30,2.06
2021-02-15,20:00,2.05
2021-02-15,20:30,2.04
2021-02-15,21:00,2.05
2021-02-15,21:30,2.06
2021-02-15,22:00,2.06
2021-02-15,22:30,2.06
2021-02-15,23:00,2.05
2021-02-15,23:30,2.04
2021-02-16,00:00,2.03
2021-02-16,00:30,2.02
2021-02-16,01:00,2.02
2021-02-16,01:30,2.02
2021-02-16,02:00,2.02
2021-02-16,02:30,2.02
2021-02-16,03:00,2.02
2021-02-16,03:30,2.02
2021-02-16,04:00,2.02
2021-02-16,04:30,2.02
2021-02-16,05:00,2.01
2021-02-16,05:30,2.01
2021-02-16,06:00,2.01
2021-02-16,06:30,2.01
2021-02-16,07:00,2.0
2021-02-16,07:30,1.99
2021-02-16,08:00,1.99
2021-02-16,08:30,1.98
2021-02-16,09:00,1.97
2021-02-16,09:30,1.97
2021-02-16,10:00,1.97
2021-02-16,10:30,1.98
2021-02-16,11:00,1.98
2021-02-16,11:30,1.97
2021-02-16,12:00,1.97
2021-02-16,12:30,1.97
2021-02-16,13:00,1.96
2021-02-16,13:30,1.96
2021-02-16,14:00,1.97
2021-02-16,14:30,1.98
2021-02-16,15:00,1.98
2021-02-16,15:30,1.97
2021-02-16,16:00,1.97
2021-02-16,16:30,1.97
2021-02-16,17:00,1.97
2021-02-16,17:30,1.97
2021-02-16,18:00,1.98
2021-02-16,18:30,1.98
2021-02-16,19:00,1.99
2021-02-16,19:30,1.99
2021-02-16,20:00,2.0
2021-02-16,20:30,2.01
2021-02-16,21:00,2.02
2021-02-16,21:30,2.03
2021-02-16,22:00,2.04
2021-02-16,22:30,2.05
2021-02-16,23:00,2.06
2021-02-16,23:30,2.07
2021-02-17,00:00,2.08
2021-02-17,00:30,2.09
2021-02-17,01:00,2.1
2021-02-17,01:30,2.1
2021-02-17,02:00,2.11
2021-02-17,02:30,2.11
2021-02-17,03:00,2.11
2021-02-17,03:30,2.11
2021-02-17,04:00,2.1
2021-02-17,04:30,2.1
2021-02-17,05:00,2.09
2021-02-17,05:30,2.09
2021-02-17,06:00,2.08
2021-02-17,06:30,2.08
2021-02-17,07:00,2.07
2021-02-17,07:30,2.06
2021-02-17,08:00,2.06
2021-02-17,08:30,2.05
2021-02-17,09:00,2.05
2021-02-17,09:30,2.04
2021-02-17,10:00,2.03
2021-02-17,10:30,2.03
2021-02-17,11:00,2.02
2021-02-17,11:30,2.02
2021-02-17,12:00,2.01
2021-02-17,12:30,2.01
2021-02-17,13:00,2.0
2021-02-17,13:30,2.0
2021-02-17,14:00,1.99
2021-02-17,14:30,1.99
2021-02-17,15:00,1.98
2021-02-17,15:30,1.97
2021-02-17,16:00,1.97
2021-02-17,16:30,1.97
2021-02-17,17:00,1.96
2021-02-17,17:30,1.96
2021-02-17,18:00,1.96
2021-02-17,18:30,1.96
2021-02-17,19:00,1.95
2021-02-17,19:30,1.95
2021-02-17,20:00,1.95
2021-02-17,20:30,1.95
2021-02-17,21:00,1.94
2021-02-17,21:30,1.94
2021-02-17,22:00,1.94
2021-02-17,22:30,1.93
2021-02-17,23:00,1.93
2021-02-17,23:30,1.93
2021-02-18,00:00,1.93
2021-02-18,00:30,1.92
2021-02-18,01:00,1.92
2021-02-18,01:30,1.92
2021-02-18,02:00,1.91
2021-02-18,02:30,1.91
2021-02-18,03:00,1.91
2021-02-18,03:30,1.91
2021-02-18,04:00,1.9
2021-02-18,04:30,1.9
2021-02-18,05:00,1.9
2021-02-18,05:30,1.9
2021-02-18,06:00,1.9
2021-02-18,06:30,1.9
2021-02-18,07:00,1.9
2021-02-18,07:30,1.9
2021-02-18,08:00,1.9
2021-02-18,08:30,1.91
2021-02-18,09:00,1.92
2021-02-18,09:30,1.93
2021-02-18,10:00,1.94
2021-02-18,10:30,1.94
2021-02-18,11:00,1.95
2021-02-18,11:30,1.96
2021-02-18,12:00,1.98
2021-02-18,12:30,2.0
2021-02-18,13:00,2.02
2021-02-18,13:30,2.06
2021-02-18,14:00,2.11
2021-02-18,14:30,2.2
2021-02-18,15:00,2.29
2021-02-18,15:30,2.39
2021-02-18,16:00,2.48
2021-02-18,16:30,2.55
2021-02-18,17:00,2.59
2021-02-18,17:30,2.6
2021-02-18,18:00,2.59
2021-02-18,18:30,2.57
2021-02-18,19:00,2.55
2021-02-18,19:30,2.51
2021-02-18,20:00,2.48
2021-02-18,20:30,2.44
2021-02-18,21:00,2.41
2021-02-18,21:30,2.38
2021-02-18,22:00,2.35
2021-02-18,22:30,2.33
2021-02-18,23:00,2.3
2021-02-18,23:30,2.28
2021-02-19,00:00,2.26
2021-02-19,00:30,2.24
2021-02-19,01:00,2.22
2021-02-19,01:30,2.2
2021-02-19,02:00,2.18
2021-02-19,02:30,2.16
2021-02-19,03:00,2.15
2021-02-19,03:30,2.14
2021-02-19,04:00,2.13
2021-02-19,04:30,2.12
2021-02-19,05:00,2.11
2021-02-19,05:30,2.1
2021-02-19,06:00,2.08
2021-02-19,06:30,2.07
2021-02-19,07:00,2.07
2021-02-19,07:30,2.06
2021-02-19,08:00,2.06
2021-02-19,08:30,2.05
2021-02-19,09:00,2.04
2021-02-19,09:30,2.04
2021-02-19,10:00,2.03
2021-02-19,10:30,2.03
2021-02-19,11:00,2.02
2021-02-19,11:30,2.01
2021-02-19,12:00,2.01
2021-02-19,12:30,2.01
2021-02-19,13:00,2.0
2021-02-19,13:30,2.0
2021-02-19,14:00,1.99
2021-02-19,14:30,1.99
2021-02-19,15:00,1.99
2021-02-19,15:30,1.98
2021-02-19,16:00,1.98
2021-02-19,16:30,1.97
2021-02-19,17:00,1.96
2021-02-19,17:30,1.96
2021-02-19,18:00,1.95
2021-02-19,18:30,1.95
2021-02-19,19:00,1.95
2021-02-19,19:30,1.94
2021-02-19,20:00,1.94
2021-02-19,20:30,1.94
2021-02-19,21:00,1.94
2021-02-19,21:30,1.93
2021-02-19,22:00,1.93
2021-02-19,22:30,1.93
2021-02-19,23:00,1.93
2021-02-19,23:30,1.93
2021-02-20,00:00,1.93
2021-02-20,00:30,1.93
2021-02-20,01:00,1.93
2021-02-20,01:30,1.92
2021-02-20,02:00,1.92
2021-02-20,02:30,1.93
2021-02-20,03:00,1.93
2021-02-20,03:30,1.92
2021-02-20,04:00,1.92
2021-02-20,04:30,1.92
2021-02-20,05:00,1.91
2021-02-20,05:30,1.91
2021-02-20,06:00,1.9
2021-02-20,06:30,1.9
2021-02-20,07:00,1.9
2021-02-20,07:30,1.9
2021-02-20,08:00,1.89
2021-02-20,08:30,1.89
2021-02-20,09:00,1.89
2021-02-20,09:30,1.88
2021-02-20,10:00,1.88
2021-02-20,10:30,1.88
2021-02-20,11:00,1.88
2021-02-20,11:30,1.88
2021-02-20,12:00,1.88
2021-02-20,12:30,1.88
2021-02-20,13:00,1.88
2021-02-20,13:30,1.89
2021-02-20,14:00,1.9
2021-02-20,14:30,1.91
2021-02-20,15:00,1.93
2021-02-20,15:30,1.96
2021-02-20,16:00,1.99
2021-02-20,16:30,2.02
2021-02-20,17:00,2.07
2021-02-20,17:30,2.27
2021-02-20,18:00,2.68
2021-02-20,18:30,3.07
2021-02-20,19:00,3.43
2021-02-20,19:30,3.77
2021-02-20,20:00,4.04
2021-02-20,20:30,4.24
2021-02-20,21:00,4.37
2021-02-20,21:30,4.44
2021-02-20,22:00,4.45
2021-02-20,22:30,4.42
2021-02-20,23:00,4.36
2021-02-20,23:30,4.29
2021-02-21,00:00,4.22
2021-02-21,00:30,4.17
2021-02-21,01:00,4.13
2021-02-21,01:30,4.11
2021-02-21,02:00,4.12
2021-02-21,02:30,4.13
2021-02-21,03:00,4.16
2021-02-21,03:30,4.21
2021-02-21,04:00,4.26
2021-02-21,04:30,4.34
2021-02-21,05:00,4.44
2021-02-21,05:30,4.55
2021-02-21,06:00,4.66
2021-02-21,06:30,4.76
2021-02-21,07:00,4.82
2021-02-21,07:30,4.84
2021-02-21,08:00,4.84
2021-02-21,08:30,4.8
2021-02-21,09:00,4.75
2021-02-21,09:30,4.69
2021-02-21,10:00,4.63
2021-02-21,10:30,4.56
2021-02-21,11:00,4.49
2021-02-21,11:30,4.42
2021-02-21,12:00,4.34
2021-02-21,12:30,4.26
2021-02-21,13:00,4.18
2021-02-21,13:30,4.09
2021-02-21,14:00,4.01
2021-02-21,14:30,3.92
2021-02-21,15:00,3.84
2021-02-21,15:30,3.77
2021-02-21,16:00,3.7
2021-02-21,16:30,3.63
2021-02-21,17:00,3.58
2021-02-21,17:30,3.52
2021-02-21,18:00,3.46
2021-02-21,18:30,3.41
2021-02-21,19:00,3.37
2021-02-21,19:30,3.33
2021-02-21,20:00,3.29
2021-02-21,20:30,3.25
2021-02-21,21:00,3.21
2021-02-21,21:30,3.18
2021-02-21,22:00,3.14
2021-02-21,22:30,3.1
2021-02-21,23:00,3.07
2021-02-21,23:30,3.04
2021-02-22,00:00,3.01
2021-02-22,00:30,2.98
2021-02-22,01:00,2.95
2021-02-22,01:30,2.92
2021-02-22,02:00,2.9
2021-02-22,02:30,2.87
2021-02-22,03:00,2.85
2021-02-22,03:30,2.83
2021-02-22,04:00,2.81
2021-02-22,04:30,2.79
2021-02-22,05:00,2.77
2021-02-22,05:30,2.75
2021-02-22,06:00,2.74
2021-02-22,06:30,2.72
2021-02-22,07:00,2.7
2021-02-22,07:30,2.69
2021-02-22,08:00,2.67
2021-02-22,08:30,2.66
2021-02-22,09:00,2.65
2021-02-22,09:30,2.63
2021-02-22,10:00,2.62
2021-02-22,10:30,2.61
2021-02-22,11:00,2.59
2021-02-22,11:30,2.58
2021-02-22,12:00,2.57
2021-02-22,12:30,2.56
2021-02-22,13:00,2.54
2021-02-22,13:30,2.54
2021-02-22,14:00,2.52
2021-02-22,14:30,2.51
2021-02-22,15:00,2.5
2021-02-22,15:30,2.49
2021-02-22,16:00,2.48
2021-02-22,16:30,2.47
2021-02-22,17:00,2.46
2021-02-22,17:30,2.45
2021-02-22,18:00,2.44
2021-02-22,18:30,2.43
2021-02-22,19:00,2.42
2021-02-22,19:30,2.41
2021-02-22,20:00,2.4
2021-02-22,20:30,2.39
2021-02-22,21:00,2.38
2021-02-22,21:30,2.38
2021-02-22,22:00,2.37
2021-02-22,22:30,2.36
2021-02-22,23:00,2.35
2021-02-22,23:30,2.35
2021-02-23,00:00,2.34
2021-02-23,00:30,2.33
2021-02-23,01:00,2.31
2021-02-23,01:30,2.31
2021-02-23,02:00,2.31
2021-02-23,02:30,2.3
2021-02-23,03:00,2.3
2021-02-23,03:30,2.29
2021-02-23,04:00,2.28
2021-02-23,04:30,2.28
2021-02-23,05:00,2.27
2021-02-23,05:30,2.27
2021-02-23,06:00,2.26
2021-02-23,06:30,2.25
2021-02-23,07:00,2.25
2021-02-23,07:30,2.24
2021-02-23,08:00,2.24
2021-02-23,08:30,2.23
2021-02-23,09:00,2.23
2021-02-23,09:30,2.22
2021-02-23,10:00,2.22
2021-02-23,10:30,2.21
2021-02-23,11:00,2.21
2021-02-23,11:30,2.2
2021-02-23,12:00,2.2
2021-02-23,12:30,2.19
2021-02-23,13:00,2.18
2021-02-23,13:30,2.18
2021-02-23,14:00,2.17
2021-02-23,14:30,2.17
2021-02-23,15:00,2.17
2021-02-23,15:30,2.16
2021-02-23,16:00,2.16
2021-02-23,16:30,2.15
2021-02-23,17:00,2.15
2021-02-23,17:30,2.14
2021-02-23,18:00,2.14
2021-02-23,18:30,2.14
2021-02-23,19:00,2.13
2021-02-23,19:30,2.13
2021-02-23,20:00,2.12
2021-02-23,20:30,2.12
2021-02-23,21:00,2.11
2021-02-23,21:30,2.11
2021-02-23,22:00,2.1
2021-02-23,22:30,2.1
2021-02-23,23:00,2.09
2021-02-23,23:30,2.08
2021-02-24,00:00,2.08
2021-02-24,00:30,2.08
2021-02-24,01:00,2.07
2021-02-24,01:30,2.07
2021-02-24,02:00,2.07
2021-02-24,02:30,2.06
2021-02-24,03:00,2.06
2021-02-24,03:30,2.06
2021-02-24,04:00,2.06
2021-02-24,04:30,2.05
2021-02-24,05:00,2.05
2021-02-24,05:30,2.04
2021-02-24,06:00,2.04
2021-02-24,06:30,2.04
2021-02-24,07:00,2.03
2021-02-24,07:30,2.03
2021-02-24,08:00,2.03
2021-02-24,08:30,2.03
2021-02-24,09:00,2.03
2021-02-24,09:30,2.03
2021-02-24,10:00,2.02
2021-02-24,10:30,2.02
2021-02-24,11:00,2.02
2021-02-24,11:30,2.01
2021-02-24,12:00,2.01
2021-02-24,12:30,2.01
2021-02-24,13:00,2.01
2021-02-24,13:30,2.01
2021-02-24,14:00,2.0
2021-02-24,14:30,2.0
2021-02-24,15:00,2.0
2021-02-24,15:30,2.0
2021-02-24,16:00,1.99
2021-02-24,16:30,1.98
2021-02-24,17:00,1.98
2021-02-24,17:30,1.98
2021-02-24,18:00,1.99
2021-02-24,18:30,1.99
2021-02-24,19:00,1.98
2021-02-24,19:30,1.97
2021-02-24,20:00,1.96
2021-02-24,20:30,1.96
2021-02-24,21:00,1.97
2021-02-24,21:30,1.97
2021-02-24,22:00,1.96
2021-02-24,22:30,1.95
2021-02-24,23:00,1.94
2021-02-24,23:30,1.95
2021-02-25,00:00,1.96
2021-02-25,00:30,1.96
2021-02-25,01:00,1.96
2021-02-25,01:30,1.96
2021-02-25,02:00,1.95
2021-02-25,02:30,1.95
2021-02-25,03:00,1.95